Weather Roundup
Issued by NWS Springfield, MO

Home | Current Version | Previous Version | Text Only | Print | Product List | Glossary On
Versions: 1 2 3 4 5 6 7 8 9 10 11 12 13 14 15 16 17 18 19 20 21 22 23 24 25 26 27 28 29 30 31 32 33 34 35 36 37 38 39 40 41 42 43 44 45 46 47 48 49 50
000
NZUS99 KSGF 281607
HRRSGF

HOURLY WEATHER
NATIONAL WEATHER SERVICE SPRINGFIELD MO
1000 AM CST WED JAN 28 2015

......SGF CWA......

CITY           SKY/WX    TMP DP  RH WIND       PRES   REMARKS
SPRINGFIELD    SUNNY     46  34  62 SE23      30.07F
JOPLIN         SUNNY     63  36  36 S20       30.02F
WEST PLAINS    SUNNY     39  30  70 S12       30.21S WCI  32
ROLLA          SUNNY     40  30  67 S22G29    30.10F WCI  30
OSAGE BEACH    SUNNY     45  30  57 S17G23    30.09S
BRANSON        MOSUNNY   46  36  66 SE10      30.14R

......SURROUNDING SGF CWA......

CITY           SKY/WX    TMP DP  RH WIND       PRES   REMARKS
CHANUTE        SUNNY     58  39  49 S18       29.96F
PARSONS        SUNNY     61  39  44 S14       29.98F
COFFEYVILLE    SUNNY     60  38  43 S17       29.98F
EMPORIA        SUNNY     53  38  56 S20       29.87F
GROVE OK       SUNNY     63  37  39 S15       30.05F
ROGERS AR      SUNNY     57  37  47 S12       30.10R
SILOAM SPRINGS SUNNY     61  36  39 S16G22    30.10S
HARRISON AR    SUNNY     51  36  56 SE15      30.14S
NEAR YELLVILLE SUNNY     45  32  61 SE6       30.19S

......KANSAS AND MISSOURI......

CITY           SKY/WX    TMP DP  RH WIND       PRES   REMARKS
KANSAS CTY INT PTSUNNY   52  36  54 S14       29.90F
DOWNTOWN KC    SUNNY     55  35  47 S13G20    29.92S
COLUMBIA       SUNNY     41  32  70 SE16      30.07F
SEDALIA        SUNNY     50  35  56 S17       30.01F
ST JOSEPH      SUNNY     48  34  58 S12       29.90F
ST LOUIS       MOSUNNY   37  27  67 SE17G25   30.22S WCI  27
SPIRIT OF STL  MOSUNNY   37  26  64 SE8       30.20F WCI  31
KIRKSVILLE     SUNNY     35  32  88 SE20G28   30.03F WCI  24
WICHITA        MOSUNNY   57  38  48 S15       29.88F
TOPEKA         MOSUNNY   55  38  52 S7        29.88F
OLATHE         SUNNY     55  37  50 S12G22    29.92S

......TENNESSEE......

CITY           SKY/WX    TMP DP  RH WIND       PRES   REMARKS
MEMPHIS        MOSUNNY   44  28  53 S8        30.31R
NASHVILLE      MOSUNNY   37  22  54 SE6       30.35S WCI  32

......ARKANSAS.......

CITY           SKY/WX    TMP DP  RH WIND       PRES   REMARKS
FAYETTEVILLE   SUNNY     58  37  45 S12G20    30.11S
FT SMITH       SUNNY     50  37  61 E10       30.17R
LITTLE ROCK    MOSUNNY   49  35  58 S8        30.27S

......OKLAHOMA.......

CITY           SKY/WX    TMP DP  RH WIND       PRES   REMARKS
TULSA          MOSUNNY   60  40  47 S16G24    30.01F
PONCA CITY     SUNNY     61  37  41 S8G17     29.94F
MCALESTER      MOSUNNY   64  40  41 S14G21    30.10S
OKLAHOMA CITY  MOSUNNY   62  39  42 S10       30.01F

......IOWA............

CITY           SKY/WX    TMP DP  RH WIND       PRES   REMARKS
DES MOINES     PTSUNNY   33  28  81 SE17      29.94F FOG     WCI  22
QUAD CITIES    MOSUNNY   28  19  69 SE9G18    30.15F WCI  19

......ILLINOIS........

CITY           SKY/WX    TMP DP  RH WIND       PRES   REMARKS
QUINCY         SUNNY     34  27  75 SE17G25   30.11F WCI  23
CHICAGO        PTSUNNY   27  13  55 S12       30.26S WCI  17




USA.gov is the U.S. government's official web portal to all federal, state and local government web resources and services.